DW5684 Weather Reports


Display with metric or nautical units.
time (UTC)temp
F
wind
direction
speed
MPH
gust
MPH
rain 1hr
in
rain 24hr
in
rain mn
in
humidity
%
barometer
mb
20260502235813 62 311 0.0 0.0 0.00 0.00 0.00 46 1019.6
20260502235309 62 303 0.0 1.0 0.00 0.00 0.00 46 1019.6
20260502234805 61 312 0.0 3.0 0.00 0.00 0.00 49 1019.6
20260502234319 61 314 0.0 1.0 0.00 0.00 0.00 52 1019.7
20260502233814 61 256 0.0 1.0 0.00 0.00 0.00 45 1019.7
20260502233309 62 334 0.0 0.0 0.00 0.00 0.00 45 1019.7
20260502232807 61 321 0.0 1.0 0.00 0.00 0.00 46 1019.7
20260502232322 62 1 0.0 3.0 0.00 0.00 0.00 46 1019.7
20260502231817 62 296 0.0 5.0 0.00 0.00 0.00 45 1019.7
20260502231312 62 330 1.0 5.0 0.00 0.00 0.00 45 1019.7
20260502230808 62 287 1.0 7.0 0.00 0.00 0.00 48 1019.7
20260502230303 62 27 2.0 7.0 0.00 0.00 0.00 45 1019.7
20260502225837 63 325 0.0 2.0 0.00 0.00 0.00 42 1019.8
20260502225308 63 259 0.0 3.0 0.00 0.00 0.00 44 1019.8
20260502224808 63 244 0.0 3.0 0.00 0.00 0.00 42 1019.8
20260502224302 63 315 0.0 4.0 0.00 0.00 0.00 44 1019.8
20260502223818 63 281 0.0 4.0 0.00 0.00 0.00 45 1019.8
20260502223333 64 349 1.0 4.0 0.00 0.00 0.00 47 1019.8
20260502222806 63 311 1.0 5.0 0.00 0.00 0.00 43 1019.8
20260502222320 63 291 0.0 5.0 0.00 0.00 0.00 46 1019.8
20260502221815 64 290 2.0 5.0 0.00 0.00 0.00 46 1019.9
20260502221310 64 325 1.0 4.0 0.00 0.00 0.00 46 1019.9
20260502220809 64 23 0.0 6.0 0.00 0.00 0.00 44 1019.9
20260502220304 64 309 0.0 7.0 0.00 0.00 0.00 46 1019.9
20260502215819 64 2 1.0 7.0 0.00 0.00 0.00 50 1019.9
20260502215313 64 359 0.0 5.0 0.00 0.00 0.00 46 1019.9
20260502214807 63 29 0.0 5.0 0.00 0.00 0.00 45 1019.9
20260502214322 63 56 1.0 5.0 0.00 0.00 0.00 49 1020.0
20260502213817 64 324 2.0 7.0 0.00 0.00 0.00 45 1020.0
20260502213312 64 289 2.0 5.0 0.00 0.00 0.00 49 1019.8
20260502212827 64 305 2.0 4.0 0.00 0.00 0.00 44 1019.9
20260502212305 64 267 0.0 3.0 0.00 0.00 0.00 46 1020.0
20260502211818 63 336 0.0 6.0 0.00 0.00 0.00 48 1020.2
20260502211333 62 11 1.0 6.0 0.00 0.00 0.00 47 1020.1
20260502210807 62 315 0.0 7.0 0.00 0.00 0.00 47 1020.2
20260502210322 63 6 0.0 7.0 0.00 0.00 0.00 47 1020.2
20260502205816 64 305 2.0 6.0 0.00 0.00 0.00 47 1020.2
20260502205311 64 203 0.0 8.0 0.00 0.00 0.00 50 1020.3
20260502204805 64 294 1.0 9.0 0.00 0.00 0.00 47 1020.3
20260502204304 64 335 2.0 6.0 0.00 0.00 0.00 47 1020.2
20260502203817 64 180 0.0 4.0 0.00 0.00 0.00 45 1020.3
20260502203312 64 300 1.0 7.0 0.00 0.00 0.00 49 1020.4
20260502202807 63 271 1.0 7.0 0.00 0.00 0.00 45 1020.5
20260502202322 64 35 0.0 5.0 0.00 0.00 0.00 45 1020.6
20260502201816 63 57 1.0 5.0 0.00 0.00 0.00 49 1020.6
20260502201310 63 324 2.0 7.0 0.00 0.00 0.00 44 1020.6
20260502200805 64 23 2.0 7.0 0.00 0.00 0.00 51 1020.7
20260502200303 63 282 1.0 5.0 0.00 0.00 0.00 45 1020.7
20260502195817 63 309 0.0 6.0 0.00 0.00 0.00 47 1020.7
20260502195312 63 317 2.0 6.0 0.00 0.00 0.00 49 1020.8
20260502194807 63 322 2.0 6.0 0.00 0.00 0.00 42 1020.7
20260502194322 63 294 0.0 5.0 0.00 0.00 0.00 48 1020.8
20260502193817 62 311 1.0 7.0 0.00 0.00 0.00 52 1020.8
20260502193312 62 321 4.0 7.0 0.00 0.00 0.00 48 1020.9
20260502192810 63 299 2.0 9.0 0.00 0.00 0.00 49 1020.9
20260502192305 63 285 2.0 9.0 0.00 0.00 0.00 45 1021.0
20260502191819 63 314 0.0 1.0 0.00 0.00 0.00 47 1020.9
20260502191315 63 15 0.0 3.0 0.00 0.00 0.00 49 1021.0
20260502190808 63 349 0.0 7.0 0.00 0.00 0.00 45 1021.0
20260502190303 63 333 3.0 7.0 0.00 0.00 0.00 46 1021.0
20260502185838 64 335 0.0 6.0 0.00 0.00 0.00 48 1021.1
20260502185312 63 314 0.0 4.0 0.00 0.00 0.00 53 1021.1
20260502184811 63 24 1.0 4.0 0.00 0.00 0.00 47 1021.1
20260502184306 62 158 0.0 6.0 0.00 0.00 0.00 47 1021.1
20260502183821 63 355 1.0 8.0 0.00 0.00 0.00 45 1021.2
20260502183316 62 250 1.0 8.0 0.00 0.00 0.00 51 1021.2
20260502182830 62 23 0.0 8.0 0.00 0.00 0.00 51 1021.3
20260502182324 62 290 4.0 8.0 0.00 0.00 0.00 47 1021.3
20260502181818 62 207 0.0 5.0 0.00 0.00 0.00 49 1021.3
20260502181313 61 335 3.0 6.0 0.00 0.00 0.00 50 1021.4
20260502180807 61 288 2.0 7.0 0.00 0.00 0.00 53 1021.4
20260502180306 61 350 2.0 7.0 0.00 0.00 0.00 51 1021.5
20260502170308 60 333 1.0 7.0 0.00 0.00 0.00 55 1021.8
20260502164331 59 309 1.0 4.0 0.00 0.00 0.00 61 1021.9
20260502163804 59 34 1.0 6.0 0.00 0.00 0.00 57 1021.9
20260502163319 60 132 0.0 8.0 0.00 0.00 0.00 55 1022.0
20260502162814 59 313 3.0 8.0 0.00 0.00 0.00 53 1022.0
20260502162310 59 288 0.0 9.0 0.00 0.00 0.00 62 1021.9
20260502161805 59 49 2.0 9.0 0.00 0.00 0.00 57 1021.9
20260502161320 59 285 1.0 5.0 0.00 0.00 0.00 57 1021.9
20260502160815 59 319 1.0 5.0 0.00 0.00 0.00 62 1021.9
20260502160314 59 320 0.0 5.0 0.00 0.00 0.00 63 1021.8
20260502152312 57 321 1.0 4.0 0.00 0.00 0.00 70 1021.7
20260502151827 56 13 1.0 4.0 0.00 0.00 0.00 66 1021.8
20260502151320 56 318 1.0 4.0 0.00 0.00 0.00 70 1021.8
20260502150835 56 7 0.0 4.0 0.00 0.00 0.00 70 1021.8
20260502150328 55 304 1.0 7.0 0.00 0.00 0.00 69 1021.8
20260502130318 49 323 1.0 5.0 0.00 0.00 0.00 76 1021.0
20260502123312 47 293 0.0 0.0 0.00 0.00 0.00 81 1020.8
20260502122807 45 290 0.0 0.0 0.00 0.00 0.00 82 1020.8
20260502122322 45 237 0.0 1.0 0.00 0.00 0.00 83 1020.8
20260502121817 44 342 0.0 1.0 0.00 0.00 0.00 83 1020.7
20260502121316 44 281 0.0 2.0 0.00 0.00 0.00 84 1020.6
20260502120811 44 342 0.0 2.0 0.00 0.00 0.00 84 1020.6
20260502120306 44 348 0.0 1.0 0.00 0.00 0.00 85 1020.5
20260502115842 43 274 0.0 1.0 0.00 0.00 0.00 87 1020.5
20260502115315 42 295 0.0 0.0 0.00 0.00 0.00 88 1020.3
20260502114831 42 295 0.0 0.0 0.00 0.00 0.00 88 1020.3
20260502114326 42 295 0.0 0.0 0.00 0.00 0.00 88 1020.2
20260502113819 41 295 0.0 0.0 0.00 0.00 0.00 89 1020.1
20260502113314 41 295 0.0 0.0 0.00 0.00 0.00 89 1020.2
20260502112813 41 310 0.0 0.0 0.00 0.00 0.00 90 1020.2
20260502112308 41 310 0.0 0.0 0.00 0.00 0.00 90 1020.2
20260502111822 41 310 0.0 0.0 0.00 0.00 0.00 90 1020.0
20260502111315 41 310 0.0 0.0 0.00 0.00 0.00 89 1019.9
20260502110828 41 310 0.0 0.0 0.00 0.00 0.00 89 1019.8
20260502110340 41 310 0.0 1.0 0.00 0.00 0.00 89 1019.9
20260502105814 41 310 0.0 1.0 0.00 0.00 0.00 90 1019.9
20260502105329 41 314 0.0 0.0 0.00 0.00 0.00 89 1019.9
20260502104821 41 314 0.0 0.0 0.00 0.00 0.00 89 1019.9
20260502104315 41 314 0.0 0.0 0.00 0.00 0.00 90 1019.8
20260502103829 42 314 0.0 0.0 0.00 0.00 0.00 89 1019.9
20260502103321 42 314 0.0 0.0 0.00 0.00 0.00 89 1019.9
20260502102836 42 314 0.0 0.0 0.00 0.00 0.00 88 1019.8
20260502102314 42 314 0.0 0.0 0.00 0.00 0.00 88 1019.7
20260502101809 42 314 0.0 0.0 0.00 0.00 0.00 89 1019.8
20260502101304 42 314 0.0 0.0 0.00 0.00 0.00 89 1019.6
20260502100818 42 314 0.0 0.0 0.00 0.00 0.00 87 1019.5
20260502100312 42 314 0.0 0.0 0.00 0.00 0.00 88 1019.5
20260502091314 42 314 0.0 0.0 0.00 0.00 0.00 92 1019.2
20260502090809 42 314 0.0 0.0 0.00 0.00 0.00 91 1019.1
20260502090327 42 314 0.0 0.0 0.00 0.00 0.00 91 1019.1
20260502071322 45 314 0.0 0.0 0.00 0.00 0.00 84 1018.8
20260502070816 45 314 0.0 0.0 0.00 0.00 0.00 85 1018.8
20260502070310 45 314 0.0 0.0 0.00 0.00 0.00 86 1018.7
20260502065803 45 314 0.0 0.0 0.00 0.00 0.00 86 1018.8
20260502065316 45 314 0.0 0.0 0.00 0.00 0.00 86 1018.9
20260502064808 45 314 0.0 0.0 0.00 0.00 0.00 86 1018.8
20260502064322 45 314 0.0 0.0 0.00 0.00 0.00 85 1018.9
20260502063815 45 314 0.0 0.0 0.00 0.00 0.00 83 1018.8
20260502063309 46 314 0.0 0.0 0.00 0.00 0.00 84 1018.9
20260502062807 46 314 0.0 0.0 0.00 0.00 0.00 84 1018.8
20260502062320 46 314 0.0 0.0 0.00 0.00 0.00 84 1018.9
20260502061815 46 314 0.0 0.0 0.00 0.00 0.00 84 1018.9
20260502061310 46 314 0.0 0.0 0.00 0.00 0.00 84 1018.9
20260502060805 46 314 0.0 0.0 0.00 0.00 0.00 84 1018.9
20260502060320 46 314 0.0 0.0 0.00 0.00 0.00 85 1018.9
20260502055814 46 314 0.0 0.0 0.00 0.00 0.00 86 1018.9
20260502055309 46 314 0.0 0.0 0.00 0.00 0.00 88 1019.0
20260502054822 45 315 0.0 0.0 0.00 0.00 0.00 89 1019.0
20260502054320 45 315 0.0 0.0 0.00 0.00 0.00 90 1019.0
20260502053815 45 315 0.0 0.0 0.00 0.00 0.00 90 1019.0
20260502053308 45 315 0.0 0.0 0.00 0.00 0.00 90 1019.0
20260502052804 45 315 0.0 0.0 0.00 0.00 0.00 91 1019.0
20260502052318 45 315 0.0 0.0 0.00 0.00 0.00 91 1019.0
20260502051813 45 315 0.0 0.0 0.00 0.00 0.00 92 1018.9
20260502051307 45 315 0.0 0.0 0.00 0.00 0.00 91 1018.8
20260502050820 45 315 0.0 0.0 0.00 0.00 0.00 91 1018.8
20260502050314 45 315 0.0 0.0 0.00 0.00 0.00 90 1018.7
20260502045809 46 315 0.0 0.0 0.00 0.00 0.00 90 1018.8
20260502045328 46 315 0.0 0.0 0.00 0.00 0.00 90 1018.7
20260502044820 47 315 0.0 0.0 0.00 0.00 0.00 90 1018.8
20260502044315 47 315 0.0 0.0 0.00 0.00 0.00 90 1018.8
20260502043810 47 315 0.0 0.0 0.00 0.00 0.00 89 1018.8
20260502043304 47 315 0.0 0.0 0.00 0.00 0.00 89 1018.8
20260502042818 47 315 0.0 0.0 0.00 0.00 0.00 89 1018.7
20260502042312 47 315 0.0 0.0 0.00 0.00 0.00 89 1018.8
20260502041803 47 315 0.0 0.0 0.00 0.00 0.00 89 1018.8
20260502041318 47 315 0.0 0.0 0.00 0.00 0.00 89 1018.8
20260502040832 47 315 0.0 0.0 0.00 0.00 0.00 88 1018.8
20260502040303 47 315 0.0 0.0 0.00 0.00 0.00 87 1018.9
20260502035822 47 315 0.0 0.0 0.00 0.00 0.00 87 1019.0
20260502035317 47 315 0.0 0.0 0.00 0.00 0.00 86 1018.9
20260502034811 47 315 0.0 0.0 0.00 0.00 0.00 85 1019.0
20260502034325 47 315 0.0 0.0 0.00 0.00 0.00 84 1019.0
20260502033819 48 315 0.0 0.0 0.00 0.00 0.00 84 1019.0
20260502033312 48 315 0.0 0.0 0.00 0.00 0.00 83 1019.1
20260502032807 49 315 0.0 0.0 0.00 0.00 0.00 83 1019.0
20260502032320 48 315 0.0 0.0 0.00 0.00 0.00 83 1019.0
20260502031814 48 315 0.0 0.0 0.00 0.00 0.00 80 1018.9
20260502031328 48 315 0.0 0.0 0.00 0.00 0.00 81 1018.9
20260502030806 48 315 0.0 0.0 0.00 0.00 0.00 78 1018.9
20260502030341 48 315 0.0 0.0 0.00 0.00 0.00 78 1018.9
20260502025833 49 315 0.0 0.0 0.00 0.00 0.00 78 1018.9
20260502025308 49 315 0.0 0.0 0.00 0.00 0.00 77 1018.9
20260502024803 49 314 0.0 0.0 0.00 0.00 0.00 79 1018.8
20260502024318 48 315 0.0 0.0 0.00 0.00 0.00 77 1018.8
20260502023811 48 315 0.0 0.0 0.00 0.00 0.00 76 1018.8
20260502023305 49 315 0.0 0.0 0.00 0.00 0.00 77 1018.8
20260502022817 49 314 0.0 0.0 0.00 0.00 0.00 76 1018.7
20260502022316 49 315 0.0 0.0 0.00 0.00 0.00 75 1018.6
20260502021811 49 315 0.0 0.0 0.00 0.00 0.00 75 1018.6
20260502021306 49 315 0.0 0.0 0.00 0.00 0.00 75 1018.5
20260502020818 49 315 0.0 0.0 0.00 0.00 0.00 73 1018.5
20260502020312 50 315 0.0 0.0 0.00 0.00 0.00 71 1018.4
20260502015808 50 315 0.0 0.0 0.00 0.00 0.00 70 1018.4
20260502015322 50 315 0.0 0.0 0.00 0.00 0.00 72 1018.3
20260502014818 50 315 0.0 0.0 0.00 0.00 0.00 70 1018.3
20260502014316 51 315 0.0 0.0 0.00 0.00 0.00 69 1018.2
20260502013830 51 315 0.0 0.0 0.00 0.00 0.00 67 1018.1
20260502013304 51 315 0.0 0.0 0.00 0.00 0.00 66 1018.0
20260502012818 52 314 0.0 0.0 0.00 0.00 0.00 64 1018.0
20260502012312 52 314 0.0 0.0 0.00 0.00 0.00 65 1017.9
20260502011827 53 315 0.0 0.0 0.00 0.00 0.00 61 1017.8
20260502011319 53 315 0.0 0.0 0.00 0.00 0.00 61 1017.7
20260502010812 54 315 0.0 0.0 0.00 0.00 0.00 60 1017.6
20260502010327 54 315 0.0 0.0 0.00 0.00 0.00 62 1017.6
20260502005821 55 314 0.0 0.0 0.00 0.00 0.00 61 1017.5
20260502005314 55 315 0.0 0.0 0.00 0.00 0.00 58 1017.5
20260502004829 56 315 0.0 0.0 0.00 0.00 0.00 56 1017.3
20260502004307 57 314 0.0 0.0 0.00 0.00 0.00 55 1017.3
20260502003820 57 314 0.0 0.0 0.00 0.00 0.00 56 1017.3
20260502003335 58 315 0.0 0.0 0.00 0.00 0.00 55 1017.2
20260502002809 59 315 0.0 0.0 0.00 0.00 0.00 52 1017.1
20260502002305 60 315 0.0 0.0 0.00 0.00 0.00 51 1017.1
20260502001838 60 315 0.0 0.0 0.00 0.00 0.00 50 1017.0
20260502001311 61 328 0.0 0.0 0.00 0.00 0.00 48 1016.9
20260502000805 61 323 0.0 0.0 0.00 0.00 0.00 46 1017.0
20260502000319 62 318 0.0 0.0 0.00 0.00 0.00 44 1017.0